This is the latest recevied weather packets stored in our database for station/object N6SPP. If no packets are shown the sender has not sent any weather packets the latest 10 day(s).
| Time | Temp. | Humidity | Pressure | Rain* | Wind** | Luminosity | Snow |
|---|---|---|---|---|---|---|---|
| 1777909225 | 15.56° C | 69% | 1016.4 hPa | 0 mm | - | 314 W/m² | - |
| 1777908923 | 15.56° C | 69% | 1016.7 hPa | 0 mm | - | 293 W/m² | - |
| 1777908622 | 15° C | 72% | 1016.8 hPa | 0 mm | - | 281 W/m² | - |
| 1777908318 | 15° C | 72% | 1017 hPa | 0 mm | - | 259 W/m² | - |
| 1777908014 | 15° C | 72% | 1016.8 hPa | 0 mm | - | 242 W/m² | - |
| 1777907710 | 15° C | 72% | 1016.8 hPa | 0 mm | - | 229 W/m² | - |
| 1777907404 | 15° C | 72% | 1016.9 hPa | 0 mm | - | 203 W/m² | - |
| 1777907102 | 15° C | 73% | 1016.9 hPa | 0 mm | - | 197 W/m² | - |
| 1777906800 | 15° C | 73% | 1016.7 hPa | 0 mm | - | 175 W/m² | - |
| 1777906497 | 14.44° C | 74% | 1016.9 hPa | 0 mm | - | 164 W/m² | - |
| 1777906192 | 14.44° C | 73% | 1017 hPa | 0 mm | - | 147 W/m² | - |
| 1777905889 | 14.44° C | 75% | 1016.8 hPa | 0 mm | - | 143 W/m² | - |
| 1777905586 | 13.89° C | 75% | 1016.7 hPa | 0 mm | - | 130 W/m² | - |
| 1777905283 | 13.89° C | 76% | 1016.8 hPa | 0 mm | - | 119 W/m² | - |
| 1777904980 | 13.33° C | 78% | 1017 hPa | 0 mm | - | 102 W/m² | - |
| 1777904678 | 13.33° C | 78% | 1017 hPa | 0 mm | - | 80 W/m² | - |
| 1777904374 | 13.33° C | 79% | 1016.9 hPa | 0 mm | - | 64 W/m² | - |
| 1777904071 | 12.78° C | 79% | 1017 hPa | 0 mm | - | 55 W/m² | - |
| 1777903768 | 12.78° C | 80% | 1016.8 hPa | 0 mm | - | 51 W/m² | - |
| 1777903464 | 12.78° C | 80% | 1016.6 hPa | 0 mm | - | 43 W/m² | - |
| 1777903161 | 12.78° C | 81% | 1016.6 hPa | 0 mm | - | 38 W/m² | - |
| 1777902857 | 12.78° C | 81% | 1016.7 hPa | 0 mm | - | 34 W/m² | - |
| 1777902555 | 12.78° C | 82% | 1016.6 hPa | 0 mm | - | 33 W/m² | - |
| 1777902251 | 12.78° C | 82% | 1016.5 hPa | 0 mm | - | 31 W/m² | - |
| 1777901949 | 12.78° C | 82% | 1016.7 hPa | 0 mm | - | 28 W/m² | - |
* Rain latest hour (hover to see other rain measurements)
** Current wind speed in m/s (hover to see current wind gust speed)